�������l�o���
Date,Time,MP-1(��Sv/h),MP-2(��Sv/h),MP-3(��Sv/h),MP-4(��Sv/h),MP-5(��Sv/h),MP-6(��Sv/h),MP-7(��Sv/h),MP-8(��Sv/h),����,����(m/s),���J
2017/09/09,00:00,0.926,1.460,0.956,1.746,1.210,0.511,0.932,0.859,�k��,5.1,��
2017/09/09,00:10,0.926,1.458,0.954,1.748,1.210,0.511,0.934,0.859,�k��,4.8,��
2017/09/09,00:20,0.924,1.463,0.955,1.744,1.211,0.510,0.934,0.861,�k��,4.8,��
2017/09/09,00:30,0.925,1.462,0.956,1.745,1.212,0.508,0.933,0.859,�k��,4.5,��
2017/09/09,00:40,0.923,1.460,0.955,1.747,1.212,0.510,0.932,0.859,�k��,3.9,��
2017/09/09,00:50,0.926,1.459,0.954,1.744,1.210,0.509,0.932,0.861,���k��,3.6,��
2017/09/09,01:00,0.926,1.460,0.955,1.745,1.211,0.510,0.935,0.860,�k��,3.9,��
2017/09/09,01:10,0.925,1.460,0.953,1.748,1.211,0.510,0.932,0.860,���k��,4.5,��
2017/09/09,01:20,0.924,1.460,0.955,1.744,1.210,0.510,0.932,0.863,���k��,4.8,��
2017/09/09,01:30,0.924,1.461,0.954,1.746,1.210,0.508,0.933,0.859,���k��,5.2,��
2017/09/09,01:40,0.924,1.461,0.956,1.744,1.212,0.509,0.933,0.859,���k��,4.3,��
2017/09/09,01:50,0.925,1.461,0.955,1.744,1.208,0.509,0.933,0.859,��,2.3,��
2017/09/09,02:00,0.922,1.460,0.953,1.746,1.210,0.507,0.934,0.859,���k��,2.6,��
2017/09/09,02:10,0.927,1.458,0.954,1.747,1.210,0.509,0.933,0.860,���k��,3.4,��
2017/09/09,02:20,0.924,1.460,0.955,1.746,1.209,0.508,0.932,0.859,���k��,2.6,��
2017/09/09,02:30,0.923,1.462,0.956,1.745,1.210,0.508,0.933,0.859,���k��,2.6,��
2017/09/09,02:40,0.924,1.460,0.954,1.746,1.210,0.510,0.935,0.860,���k��,2.0,��
2017/09/09,02:50,0.924,1.460,0.951,1.743,1.210,0.509,0.934,0.858,���k��,2.8,��
2017/09/09,03:00,0.923,1.461,0.954,1.746,1.207,0.510,0.932,0.859,��,2.5,��
2017/09/09,03:10,0.925,1.460,0.955,1.744,1.209,0.509,0.932,0.860,���k��,4.0,��
2017/09/09,03:20,0.923,1.460,0.954,1.746,1.209,0.509,0.935,0.860,���k��,4.0,��
2017/09/09,03:30,0.922,1.461,0.955,1.745,1.207,0.510,0.933,0.858,���k��,4.7,��
2017/09/09,03:40,0.922,1.462,0.956,1.746,1.210,0.509,0.932,0.861,���k��,4.5,��
2017/09/09,03:50,0.925,1.459,0.953,1.748,1.211,0.509,0.933,0.860,���k��,4.6,��
2017/09/09,04:00,0.927,1.459,0.958,1.745,1.208,0.509,0.934,0.859,���k��,4.5,��
2017/09/09,04:10,0.923,1.463,0.954,1.746,1.210,0.508,0.933,0.861,�k��,3.8,��
2017/09/09,04:20,0.925,1.460,0.955,1.747,1.208,0.509,0.933,0.860,�k��,3.9,��
2017/09/09,04:30,0.922,1.459,0.954,1.744,1.212,0.509,0.933,0.859,�k��,4.0,��
2017/09/09,04:40,0.924,1.459,0.954,1.747,1.207,0.510,0.932,0.858,�k��,4.8,��
2017/09/09,04:50,0.924,1.460,0.953,1.747,1.209,0.509,0.933,0.861,�k��,4.1,��
2017/09/09,05:00,0.925,1.459,0.954,1.746,1.210,0.510,0.934,0.860,�k��,4.5,��
2017/09/09,05:10,0.923,1.457,0.954,1.745,1.212,0.509,0.933,0.859,���k��,6.1,��
2017/09/09,05:20,0.923,1.459,0.954,1.748,1.209,0.507,0.934,0.860,���k��,5.8,��
2017/09/09,05:30,0.926,1.460,0.956,1.746,1.211,0.509,0.933,0.859,���k��,5.1,��
2017/09/09,05:40,0.925,1.461,0.955,1.748,1.209,0.509,0.932,0.861,���k��,5.5,��
2017/09/09,05:50,0.925,1.461,0.955,1.744,1.208,0.509,0.933,0.860,���k��,5.5,��
2017/09/09,06:00,0.923,1.463,0.956,1.749,1.207,0.510,0.933,0.861,���k��,5.2,��
2017/09/09,06:10,0.922,1.462,0.955,1.748,1.209,0.508,0.933,0.861,���k��,4.9,��
2017/09/09,06:20,0.925,1.458,0.955,1.749,1.210,0.508,0.934,0.861,���k��,4.3,��
2017/09/09,06:30,0.926,1.460,0.954,1.748,1.209,0.510,0.934,0.862,��,3.2,��
2017/09/09,06:40,0.925,1.460,0.956,1.747,1.210,0.509,0.935,0.861,��,4.8,��
2017/09/09,06:50,0.926,1.460,0.954,1.750,1.209,0.508,0.934,0.860,���k��,3.9,��
2017/09/09,07:00,0.923,1.465,0.956,1.748,1.209,0.507,0.934,0.862,���k��,3.5,��
2017/09/09,07:10,0.925,1.464,0.956,1.750,1.210,0.508,0.935,0.862,���k��,2.6,��
2017/09/09,07:20,0.926,1.462,0.958,1.749,1.210,0.507,0.935,0.861,���k��,3.4,��
2017/09/09,07:30,0.925,1.464,0.956,1.750,1.212,0.508,0.936,0.863,�k��,2.5,��
2017/09/09,07:40,0.927,1.463,0.957,1.751,1.209,0.508,0.936,0.862,���k��,2.8,��
2017/09/09,07:50,0.928,1.463,0.957,1.753,1.214,0.508,0.937,0.863,��,2.6,��
2017/09/09,08:00,0.927,1.460,0.956,1.748,1.210,0.507,0.936,0.861,���k��,1.7,��
2017/09/09,08:10,0.930,1.462,0.957,1.751,1.213,0.509,0.938,0.862,���k��,2.0,��
2017/09/09,08:20,0.928,1.459,0.958,1.755,1.215,0.509,0.936,0.862,�k�k��,0.9,��
2017/09/09,08:30,0.928,1.463,0.956,1.753,1.214,0.507,0.935,0.862,���쓌,0.6,��
2017/09/09,08:40,0.928,1.462,0.956,1.752,1.211,0.510,0.933,0.858,-,CALM,��
2017/09/09,08:50,0.930,1.466,0.958,1.756,1.213,0.508,0.932,0.859,���쐼,0.6,��
2017/09/09,09:00,0.927,1.466,0.958,1.753,1.211,0.511,0.937,0.860,���k��,1.5,��
2017/09/09,09:10,0.928,1.466,0.958,1.755,1.212,0.510,0.933,0.860,-,CALM,��
2017/09/09,09:20,0.928,1.465,0.958,1.754,1.216,0.510,0.934,0.860,�쓌,1.4,��
2017/09/09,09:30,0.930,1.467,0.959,1.754,1.214,0.510,0.936,0.861,��,0.9,��
2017/09/09,09:40,0.931,1.467,0.958,1.757,1.215,0.510,0.935,0.862,-,CALM,��
2017/09/09,09:50,0.929,1.468,0.961,1.759,1.217,0.511,0.937,0.861,�쓌,1.4,��
2017/09/09,10:00,0.929,1.468,0.961,1.756,1.219,0.510,0.938,0.861,�쓌,3.1,��
2017/09/09,10:10,0.933,1.469,0.962,1.759,1.216,0.511,0.937,0.861,�쓌,3.0,��
2017/09/09,10:20,0.934,1.471,0.961,1.754,1.220,0.511,0.937,0.863,�쓌,3.0,��
2017/09/09,10:30,0.933,1.472,0.960,1.759,1.221,0.510,0.938,0.862,�쓌,2.6,��
2017/09/09,10:40,0.933,1.472,0.962,1.759,1.218,0.511,0.938,0.861,�쓌,3.7,��
2017/09/09,10:50,0.935,1.474,0.960,1.758,1.222,0.509,0.938,0.861,�쓌,4.5,��
2017/09/09,11:00,0.933,1.472,0.962,1.758,1.220,0.510,0.936,0.861,�쓌,4.4,��
2017/09/09,11:10,0.933,1.474,0.962,1.757,1.223,0.511,0.936,0.863,��쓌,4.0,��
2017/09/09,11:20,0.935,1.475,0.962,1.760,1.226,0.511,0.939,0.860,�쓌,4.9,��
2017/09/09,11:30,0.934,1.476,0.963,1.760,1.221,0.511,0.936,0.863,�쓌,4.4,��
2017/09/09,11:40,0.935,1.477,0.962,1.760,1.222,0.511,0.937,0.862,��쓌,4.9,��
2017/09/09,11:50,0.936,1.478,0.963,1.757,1.223,0.511,0.939,0.862,�쓌,4.0,��
2017/09/09,12:00,0.938,1.478,0.964,1.758,1.225,0.511,0.939,0.863,��쓌,5.3,��
2017/09/09,12:10,0.936,1.480,0.965,1.759,1.225,0.510,0.939,0.861,��쓌,4.7,��
2017/09/09,12:20,0.936,1.479,0.965,1.759,1.226,0.513,0.938,0.862,��쓌,5.2,��
2017/09/09,12:30,0.938,1.481,0.965,1.759,1.226,0.513,0.937,0.861,��쓌,5.2,��
2017/09/09,12:40,0.937,1.483,0.967,1.762,1.228,0.513,0.939,0.862,��쓌,5.0,��
2017/09/09,12:50,0.937,1.484,0.966,1.762,1.228,0.512,0.939,0.864,��쓌,5.6,��
2017/09/09,13:00,0.939,1.484,0.967,1.761,1.230,0.513,0.937,0.862,��쓌,6.0,��
2017/09/09,13:10,0.938,1.485,0.967,1.758,1.228,0.514,0.939,0.864,��쓌,5.9,��
2017/09/09,13:20,0.938,1.483,0.968,1.760,1.229,0.513,0.941,0.862,��쓌,5.2,��
2017/09/09,13:30,0.938,1.482,0.967,1.763,1.232,0.513,0.938,0.863,��쓌,5.4,��
2017/09/09,13:40,0.942,1.484,0.965,1.762,1.230,0.514,0.939,0.863,��쓌,5.0,��
2017/09/09,13:50,0.940,1.484,0.967,1.763,1.230,0.515,0.938,0.864,��쓌,4.2,��
2017/09/09,14:00,0.942,1.487,0.969,1.765,1.230,0.515,0.939,0.864,��쓌,5.4,��
2017/09/09,14:10,0.941,1.484,0.969,1.764,1.231,0.516,0.938,0.864,��쓌,4.8,��
2017/09/09,14:20,0.941,1.487,0.969,1.765,1.234,0.516,0.938,0.865,��쓌,4.6,��
2017/09/09,14:30,0.943,1.487,0.969,1.763,1.230,0.514,0.940,0.864,��,4.3,��
2017/09/09,14:40,0.940,1.488,0.971,1.766,1.231,0.515,0.939,0.863,��,4.2,��
2017/09/09,14:50,0.941,1.488,0.968,1.767,1.230,0.516,0.939,0.862,��,4.7,��
2017/09/09,15:00,0.941,1.489,0.970,1.765,1.233,0.517,0.939,0.865,��,5.2,��
2017/09/09,15:10,0.939,1.489,0.974,1.763,1.232,0.516,0.940,0.865,��쓌,5.8,��
2017/09/09,15:20,0.941,1.487,0.970,1.764,1.234,0.517,0.940,0.862,��,5.1,��
2017/09/09,15:30,0.942,1.493,0.968,1.761,1.232,0.515,0.940,0.863,��,5.2,��
2017/09/09,15:40,0.942,1.489,0.972,1.763,1.235,0.516,0.941,0.864,��,4.5,��
2017/09/09,15:50,0.941,1.489,0.971,1.763,1.235,0.516,0.940,0.864,��,4.3,��
2017/09/09,16:00,0.943,1.491,0.970,1.764,1.237,0.517,0.941,0.864,��,4.5,��
2017/09/09,16:10,0.941,1.489,0.972,1.765,1.237,0.516,0.940,0.863,��,4.7,��
2017/09/09,16:20,0.942,1.492,0.970,1.766,1.235,0.515,0.939,0.864,��,5.5,��
2017/09/09,16:30,0.941,1.491,0.971,1.765,1.234,0.517,0.940,0.864,��,5.1,��
2017/09/09,16:40,0.942,1.493,0.970,1.765,1.236,0.517,0.939,0.864,��,4.6,��
2017/09/09,16:50,0.941,1.490,0.970,1.763,1.236,0.514,0.939,0.862,��,5.3,��
2017/09/09,17:00,0.943,1.488,0.970,1.767,1.235,0.515,0.938,0.863,��,5.7,��
2017/09/09,17:10,0.941,1.491,0.970,1.765,1.232,0.514,0.938,0.863,��,6.1,��
2017/09/09,17:20,0.941,1.493,0.969,1.765,1.233,0.515,0.938,0.867,��,5.8,��
2017/09/09,17:30,0.943,1.496,0.969,1.767,1.238,0.516,0.938,0.866,��,7.0,��
2017/09/09,17:40,0.940,1.495,0.970,1.765,1.235,0.514,0.938,0.865,��,7.3,��
2017/09/09,17:50,0.941,1.495,0.969,1.767,1.237,0.515,0.940,0.865,��,6.3,��
2017/09/09,18:00,0.943,1.494,0.969,1.763,1.235,0.517,0.940,0.866,��,7.4,��
2017/09/09,18:10,0.941,1.497,0.971,1.764,1.238,0.515,0.939,0.868,��,7.0,��
2017/09/09,18:20,0.943,1.496,0.973,1.765,1.238,0.516,0.938,0.865,��쐼,6.5,��
2017/09/09,18:30,0.939,1.494,0.975,1.764,1.237,0.516,0.938,0.866,��,5.9,��
2017/09/09,18:40,0.943,1.497,0.974,1.768,1.236,0.517,0.940,0.865,��쐼,5.8,��
2017/09/09,18:50,0.943,1.495,0.973,1.767,1.236,0.514,0.940,0.866,��,5.7,��
2017/09/09,19:00,0.941,1.495,0.973,1.767,1.238,0.516,0.941,0.866,��쐼,5.3,��
2017/09/09,19:10,0.942,1.497,0.971,1.769,1.236,0.515,0.940,0.866,��쐼,4.2,��
2017/09/09,19:20,0.943,1.496,0.972,1.770,1.235,0.515,0.939,0.866,��쐼,4.1,��
2017/09/09,19:30,0.942,1.495,0.973,1.769,1.238,0.516,0.941,0.865,��쐼,4.6,��
2017/09/09,19:40,0.940,1.497,0.974,1.767,1.236,0.516,0.939,0.864,��쐼,4.0,��
2017/09/09,19:50,0.943,1.496,0.974,1.769,1.237,0.517,0.942,0.867,��쐼,4.9,��
2017/09/09,20:00,0.942,1.494,0.972,1.768,1.238,0.516,0.940,0.865,��쐼,5.1,��
2017/09/09,20:10,0.942,1.494,0.972,1.766,1.238,0.516,0.940,0.865,��쐼,4.2,��
2017/09/09,20:20,0.943,1.494,0.973,1.768,1.235,0.515,0.940,0.865,��쐼,4.3,��
2017/09/09,20:30,0.941,1.495,0.971,1.766,1.236,0.517,0.940,0.864,��쐼,4.2,��
2017/09/09,20:40,0.942,1.492,0.973,1.765,1.238,0.516,0.940,0.866,��쐼,4.9,��
2017/09/09,20:50,0.943,1.495,0.972,1.767,1.235,0.516,0.938,0.864,��쐼,4.2,��
2017/09/09,21:00,0.944,1.492,0.971,1.768,1.237,0.516,0.940,0.865,��쐼,4.2,��
2017/09/09,21:10,0.943,1.494,0.973,1.764,1.240,0.515,0.939,0.866,��쐼,4.4,��
2017/09/09,21:20,0.941,1.494,0.972,1.769,1.238,0.516,0.942,0.866,��쐼,4.3,��
2017/09/09,21:30,0.942,1.495,0.972,1.770,1.235,0.516,0.940,0.865,��쐼,4.2,��
2017/09/09,21:40,0.941,1.492,0.974,1.769,1.237,0.517,0.938,0.865,��쐼,4.4,��
2017/09/09,21:50,0.943,1.494,0.972,1.767,1.235,0.515,0.940,0.866,�쐼,5.5,��
2017/09/09,22:00,0.944,1.494,0.970,1.770,1.235,0.517,0.938,0.864,�쐼,5.5,��
2017/09/09,22:10,0.944,1.495,0.970,1.767,1.233,0.516,0.940,0.866,�쐼,5.5,��
2017/09/09,22:20,0.943,1.493,0.972,1.768,1.234,0.514,0.940,0.865,��쐼,6.0,��
2017/09/09,22:30,0.942,1.496,0.972,1.769,1.236,0.516,0.940,0.865,��쐼,5.6,��
2017/09/09,22:40,0.942,1.493,0.972,1.766,1.238,0.516,0.940,0.865,��쐼,4.6,��
2017/09/09,22:50,0.942,1.496,0.972,1.768,1.238,0.515,0.941,0.865,��쐼,3.7,��
2017/09/09,23:00,0.943,1.492,0.973,1.765,1.235,0.516,0.939,0.864,��쐼,4.1,��
2017/09/09,23:10,0.942,1.493,0.970,1.766,1.237,0.515,0.941,0.866,��쐼,6.0,��
2017/09/09,23:20,0.942,1.493,0.972,1.765,1.235,0.515,0.939,0.865,��쐼,5.6,��
2017/09/09,23:30,0.942,1.494,0.972,1.768,1.238,0.516,0.940,0.866,��쐼,6.1,��
2017/09/09,23:40,0.941,1.494,0.972,1.767,1.235,0.516,0.941,0.868,��쐼,4.7,��
2017/09/09,23:50,0.942,1.492,0.971,1.765,1.235,0.515,0.940,0.866,�쐼,3.4,��
